Satellite: PO-34
Catalog number: 25520
Epoch time:      08192.81139306
Element set:      33
Inclination:      028.4593 deg
RA of node:       020.6210 deg
Eccentricity:    0.0005600
Arg of perigee:   184.5516 deg
Mean anomaly:     175.5039 deg
Mean motion:   15.17207520 rev/day
Decay rate:       2.13e-06 rev/day^2
Epoch rev:           53675
Checksum:              263

Satellite: ISS
Catalog number: 25544
Epoch time:      08191.93326389
Element set:    0825
Inclination:      051.6412 deg
RA of node:       259.4045 deg
Eccentricity:    0.0009157
Arg of perigee:   354.0894 deg
Mean anomaly:     013.8871 deg
Mean motion:   15.75003968 rev/day
Decay rate:      7.500e-05 rev/day^2
Epoch rev:           55211
Checksum:              306

Satellite: CO-58
Catalog number: 28895
Epoch time:      08191.74156351
Element set:      65
Inclination:      098.0977 deg
RA of node:       085.2116 deg
Eccentricity:    0.0017545
Arg of perigee:   343.1644 deg
Mean anomaly:     016.8999 deg
Mean motion:   14.59681762 rev/day
Decay rate:       1.05e-06 rev/day^2
Epoch rev:           14377
Checksum:              346

Satellite: NCUBE2
Catalog number: 28897
Epoch time:      08191.70345455
Element set:    0597
Inclination:      098.0946 deg
RA of node:       085.1036 deg
Eccentricity:    0.0017211
Arg of perigee:   344.3373 deg
Mean anomaly:     015.7295 deg
Mean motion:   14.59852947 rev/day
Decay rate:        7.4e-07 rev/day^2
Epoch rev:           13605
Checksum:              326

Satellite: FCAL
Catalog number: 29667
Epoch time:      08146.34060426
Element set:     979
Inclination:      051.6107 deg
RA of node:       065.3702 deg
Eccentricity:    0.0009039
Arg of perigee:   260.8350 deg
Mean anomaly:     099.5042 deg
Mean motion:   16.53464210 rev/day
Decay rate:  1.1864717e-01 rev/day^2
Epoch rev:            8291
Checksum:              307

Satellite: FALCON
Catalog number: 30776
Epoch time:      08191.89388850
Element set:     350
Inclination:      035.4342 deg
RA of node:       015.7796 deg
Eccentricity:    0.0001392
Arg of perigee:   262.1795 deg
Mean anomaly:     097.8763 deg
Mean motion:   15.03015853 rev/day
Decay rate:       1.37e-06 rev/day^2
Epoch rev:            7356
Checksum:              314

Satellite: MAST
Catalog number: 31126
Epoch time:      08191.82175380
Element set:    0372
Inclination:      098.0379 deg
RA of node:       255.3525 deg
Eccentricity:    0.0093438
Arg of perigee:   261.6000 deg
Mean anomaly:     097.4594 deg
Mean motion:   14.53432803 rev/day
Decay rate:        2.6e-07 rev/day^2
Epoch rev:           06530
Checksum:              286

Satellite: CAPE1
Catalog number: 31130
Epoch time:      08192.89783538
Element set:     350
Inclination:      098.0382 deg
RA of node:       255.3392 deg
Eccentricity:    0.0101350
Arg of perigee:   261.5527 deg
Mean anomaly:     097.4185 deg
Mean motion:   14.51975090 rev/day
Decay rate:        5.6e-07 rev/day^2
Epoch rev:            6516
Checksum:              299

Satellite: CUTE1-7
Catalog number: 32785
Epoch time:      08192.76060503
Element set:      99
Inclination:      097.9920 deg
RA of node:       252.6221 deg
Eccentricity:    0.0016083
Arg of perigee:   060.4434 deg
Mean anomaly:     299.8380 deg
Mean motion:   14.81374619 rev/day
Decay rate:       -1.4e-07 rev/day^2
Epoch rev:            1089
Checksum:              311

Satellite: COMPASS
Catalog number: 32787
Epoch time:      08191.47473730
Element set:    0090
Inclination:      097.9885 deg
RA of node:       251.3057 deg
Eccentricity:    0.0017133
Arg of perigee:   066.7716 deg
Mean anomaly:     293.5302 deg
Mean motion:   14.81431917 rev/day
Decay rate:       3.26e-06 rev/day^2
Epoch rev:           01070
Checksum:              298

Satellite: AAUSAT2
Catalog number: 32788
Epoch time:      08191.94223214
Element set:    0093
Inclination:      097.9882 deg
RA of node:       251.7816 deg
Eccentricity:    0.0017185
Arg of perigee:   068.6965 deg
Mean anomaly:     291.6061 deg
Mean motion:   14.81541325 rev/day
Decay rate:       3.56e-06 rev/day^2
Epoch rev:           01077
Checksum:              320

Satellite: DO-64
Catalog number: 32789
Epoch time:      08192.82653122
Element set:      98
Inclination:      097.9917 deg
RA of node:       252.6784 deg
Eccentricity:    0.0016969
Arg of perigee:   062.8150 deg
Mean anomaly:     297.4782 deg
Mean motion:   14.81425241 rev/day
Decay rate:       2.15e-06 rev/day^2
Epoch rev:            1090
Checksum:              333

Satellite: SEEDS
Catalog number: 32791
Epoch time:      08191.34644650
Element set:    0089
Inclination:      097.9917 deg
RA of node:       251.1892 deg
Eccentricity:    0.0017453
Arg of perigee:   065.8698 deg
Mean anomaly:     294.4347 deg
Mean motion:   14.81290055 rev/day
Decay rate:       3.44e-06 rev/day^2
Epoch rev:           01065
Checksum:              322

Satellite: CANX-2
Catalog number: 32797
Epoch time:      08191.12513628
Element set:    0042
Inclination:      097.9928 deg
RA of node:       251.0314 deg
Eccentricity:    0.0018832
Arg of perigee:   071.3703 deg
Mean anomaly:     288.9466 deg
Mean motion:   14.81819372 rev/day
Decay rate:      1.593e-05 rev/day^2
Epoch rev:           00933
Checksum:              315

